Time,TemperatureF,DewpointF,PressureIn,WindDirection,WindDirectionDegrees,WindSpeedMPH,WindSpeedGustMPH,Humidity,HourlyPrecipIn,Conditions,Clouds,dailyrainin,SoftwareType,DateUTC
2013-01-16 00:00:00,22.1,17.5,29.90,West,270,0.0,0.0,82,0.00,,,0.00,WUHU216HW,2013-01-16 05:00:00,
2013-01-16 00:01:00,22.0,17.3,29.90,West,270,0.0,0.0,82,0.00,,,0.00,WUHU216HW,2013-01-16 05:01:00,
2013-01-16 00:03:00,22.0,17.3,29.90,West,270,0.0,0.0,82,0.00,,,0.00,WUHU216HW,2013-01-16 05:03:00,
2013-01-16 00:08:00,21.8,17.4,29.90,West,270,0.0,0.0,83,0.00,,,0.00,WUHU216HW,2013-01-16 05:08:00,
2013-01-16 00:13:00,22.0,17.6,29.89,West,270,0.0,0.0,83,0.00,,,0.00,WUHU216HW,2013-01-16 05:13:00,
2013-01-16 00:18:00,21.8,17.4,29.89,West,270,0.0,0.0,83,0.00,,,0.00,WUHU216HW,2013-01-16 05:18:00,
2013-01-16 00:23:00,21.8,17.6,29.89,West,270,0.0,0.0,84,0.00,,,0.00,WUHU216HW,2013-01-16 05:23:00,
2013-01-16 00:28:00,21.8,17.4,29.89,West,270,0.0,0.0,83,0.00,,,0.00,WUHU216HW,2013-01-16 05:28:00,
2013-01-16 00:33:00,21.6,17.5,29.89,West,270,0.0,0.0,84,0.00,,,0.00,WUHU216HW,2013-01-16 05:33:00,
2013-01-16 00:38:00,21.6,17.5,29.88,West,270,0.0,0.0,84,0.00,,,0.00,WUHU216HW,2013-01-16 05:38:00,
2013-01-16 00:43:00,21.4,17.3,29.87,West,270,0.0,0.0,84,0.00,,,0.00,WUHU216HW,2013-01-16 05:43:00,
2013-01-16 00:48:00,21.4,17.3,29.87,West,270,0.0,0.0,84,0.00,,,0.00,WUHU216HW,2013-01-16 05:48:00,
2013-01-16 00:53:00,21.4,17.3,29.86,West,270,0.0,0.0,84,0.00,,,0.00,WUHU216HW,2013-01-16 05:53:00,
2013-01-16 00:58:00,21.2,17.1,29.86,West,270,0.0,0.0,84,0.00,,,0.00,WUHU216HW,2013-01-16 05:58:00,
2013-01-16 01:03:00,21.1,16.9,29.86,West,270,0.0,0.0,84,0.00,,,0.00,WUHU216HW,2013-01-16 06:03:00,
2013-01-16 01:08:00,21.1,16.9,29.86,West,270,0.0,0.0,84,0.00,,,0.00,WUHU216HW,2013-01-16 06:08:00,
2013-01-16 01:13:00,20.9,16.7,29.86,West,270,0.0,0.0,84,0.00,,,0.00,WUHU216HW,2013-01-16 06:13:00,
2013-01-16 01:18:00,20.7,16.6,29.85,West,270,0.0,0.0,84,0.00,,,0.00,WUHU216HW,2013-01-16 06:18:00,
2013-01-16 01:23:00,20.5,16.1,29.85,West,270,0.0,0.0,83,0.00,,,0.00,WUHU216HW,2013-01-16 06:23:00,
2013-01-16 01:28:00,20.5,16.1,29.85,West,270,0.0,0.0,83,0.00,,,0.00,WUHU216HW,2013-01-16 06:28:00,
2013-01-16 01:33:00,20.5,16.4,29.85,West,270,0.0,0.0,84,0.00,,,0.00,WUHU216HW,2013-01-16 06:33:00,
2013-01-16 01:38:00,20.5,16.4,29.85,West,270,0.0,0.0,84,0.00,,,0.00,WUHU216HW,2013-01-16 06:38:00,
2013-01-16 01:43:00,20.5,16.4,29.85,West,270,0.0,0.0,84,0.00,,,0.00,WUHU216HW,2013-01-16 06:43:00,
2013-01-16 01:50:00,20.3,16.2,29.85,West,270,0.0,0.0,84,0.00,,,0.00,WUHU216HW,2013-01-16 06:50:00,
2013-01-16 01:55:00,20.3,16.2,29.85,West,270,0.0,0.0,84,0.00,,,0.00,WUHU216HW,2013-01-16 06:55:00,
2013-01-16 02:00:00,20.3,16.2,29.85,West,270,0.0,0.2,84,0.00,,,0.00,WUHU216HW,2013-01-16 07:00:00,
2013-01-16 02:05:00,20.5,16.4,29.85,West,270,0.0,0.2,84,0.00,,,0.00,WUHU216HW,2013-01-16 07:05:00,
2013-01-16 02:10:00,20.3,16.2,29.84,West,270,0.0,0.0,84,0.00,,,0.00,WUHU216HW,2013-01-16 07:10:00,
2013-01-16 02:15:00,20.2,16.0,29.84,West,270,0.0,0.0,84,0.00,,,0.00,WUHU216HW,2013-01-16 07:15:00,
2013-01-16 02:20:00,20.0,15.8,29.83,West,270,0.0,0.0,84,0.00,,,0.00,WUHU216HW,2013-01-16 07:20:00,
2013-01-16 02:25:00,20.0,15.8,29.83,West,270,0.0,0.0,84,0.00,,,0.00,WUHU216HW,2013-01-16 07:25:00,
2013-01-16 02:30:00,19.8,15.7,29.82,West,270,0.0,0.0,84,0.00,,,0.00,WUHU216HW,2013-01-16 07:30:00,
2013-01-16 02:35:00,19.8,15.7,29.83,West,270,0.0,0.0,84,0.00,,,0.00,WUHU216HW,2013-01-16 07:35:00,
2013-01-16 02:40:00,19.8,15.9,29.84,West,270,0.0,0.0,85,0.00,,,0.00,WUHU216HW,2013-01-16 07:40:00,
2013-01-16 02:45:00,19.8,15.9,29.83,West,270,0.0,0.0,85,0.00,,,0.00,WUHU216HW,2013-01-16 07:45:00,
2013-01-16 02:50:00,19.8,15.9,29.83,West,270,0.0,0.0,85,0.00,,,0.00,WUHU216HW,2013-01-16 07:50:00,
2013-01-16 02:55:00,19.6,15.8,29.83,West,270,0.0,0.0,85,0.00,,,0.00,WUHU216HW,2013-01-16 07:55:00,
2013-01-16 03:00:00,19.8,15.9,29.83,West,270,0.0,0.0,85,0.00,,,0.00,WUHU216HW,2013-01-16 08:00:00,
2013-01-16 03:05:00,19.8,15.9,29.83,West,270,0.0,0.0,85,0.00,,,0.00,WUHU216HW,2013-01-16 08:05:00,
2013-01-16 03:10:00,19.6,15.8,29.83,West,270,0.0,0.0,85,0.00,,,0.00,WUHU216HW,2013-01-16 08:10:00,
2013-01-16 03:17:00,19.6,16.0,29.83,West,270,0.4,0.4,86,0.00,,,0.00,WUHU216HW,2013-01-16 08:17:00,
2013-01-16 03:22:00,19.8,16.2,29.82,West,270,0.4,0.4,86,0.00,,,0.00,WUHU216HW,2013-01-16 08:22:00,
2013-01-16 03:28:00,19.8,16.2,29.82,West,270,0.0,0.4,86,0.00,,,0.00,WUHU216HW,2013-01-16 08:28:00,
2013-01-16 03:33:00,19.8,16.2,29.82,West,270,0.0,0.4,86,0.00,,,0.00,WUHU216HW,2013-01-16 08:33:00,
2013-01-16 03:38:00,19.8,16.2,29.82,West,270,0.0,0.0,86,0.00,,,0.00,WUHU216HW,2013-01-16 08:38:00,
2013-01-16 03:43:00,19.8,16.2,29.82,West,270,0.0,0.0,86,0.00,,,0.00,WUHU216HW,2013-01-16 08:43:00,
2013-01-16 03:47:00,19.8,16.2,29.81,West,270,0.0,0.4,86,0.00,,,0.00,WUHU216HW,2013-01-16 08:47:00,
2013-01-16 03:52:00,19.8,16.2,29.81,West,270,0.0,0.4,86,0.00,,,0.00,WUHU216HW,2013-01-16 08:52:00,
2013-01-16 03:57:00,19.8,16.2,29.81,West,270,0.0,0.0,86,0.00,,,0.00,WUHU216HW,2013-01-16 08:57:00,
2013-01-16 04:02:00,19.8,16.2,29.80,West,270,0.0,0.0,86,0.00,,,0.00,WUHU216HW,2013-01-16 09:02:00,
2013-01-16 04:07:00,19.8,16.2,29.79,West,270,0.0,0.0,86,0.00,,,0.00,WUHU216HW,2013-01-16 09:07:00,
2013-01-16 04:12:00,19.8,16.2,29.80,West,270,0.0,0.0,86,0.00,,,0.00,WUHU216HW,2013-01-16 09:12:00,
2013-01-16 04:17:00,19.8,16.2,29.79,West,270,0.0,0.0,86,0.00,,,0.00,WUHU216HW,2013-01-16 09:17:00,
2013-01-16 04:22:00,19.6,16.0,29.79,West,270,0.0,0.0,86,0.00,,,0.00,WUHU216HW,2013-01-16 09:22:00,
2013-01-16 04:27:00,19.6,16.0,29.79,West,270,0.0,0.0,86,0.00,,,0.00,WUHU216HW,2013-01-16 09:27:00,
2013-01-16 04:32:00,19.6,16.0,29.79,West,270,0.0,0.0,86,0.00,,,0.00,WUHU216HW,2013-01-16 09:32:00,
2013-01-16 04:37:00,19.8,16.2,29.79,West,270,0.2,0.2,86,0.00,,,0.00,WUHU216HW,2013-01-16 09:37:00,
2013-01-16 04:42:00,19.8,16.2,29.79,West,270,0.0,0.2,86,0.00,,,0.00,WUHU216HW,2013-01-16 09:42:00,
2013-01-16 04:47:00,20.0,16.4,29.79,West,270,0.0,0.2,86,0.00,,,0.00,WUHU216HW,2013-01-16 09:47:00,
2013-01-16 04:52:00,19.8,16.2,29.79,West,270,0.0,0.0,86,0.00,,,0.00,WUHU216HW,2013-01-16 09:52:00,
2013-01-16 04:57:00,20.0,16.4,29.79,West,270,0.2,0.4,86,0.00,,,0.00,WUHU216HW,2013-01-16 09:57:00,
2013-01-16 05:02:00,20.0,16.4,29.79,West,270,0.0,0.4,86,0.00,,,0.00,WUHU216HW,2013-01-16 10:02:00,
2013-01-16 05:07:00,20.0,16.4,29.79,West,270,0.0,0.2,86,0.00,,,0.00,WUHU216HW,2013-01-16 10:07:00,
2013-01-16 05:12:00,20.2,16.8,29.79,West,270,0.0,0.0,87,0.00,,,0.00,WUHU216HW,2013-01-16 10:12:00,
2013-01-16 05:17:00,20.5,17.2,29.79,West,270,0.0,0.0,87,0.00,,,0.00,WUHU216HW,2013-01-16 10:17:00,
2013-01-16 05:22:00,20.5,17.2,29.78,West,270,0.0,0.0,87,0.00,,,0.00,WUHU216HW,2013-01-16 10:22:00,
2013-01-16 05:27:00,20.7,17.1,29.78,West,270,0.0,0.0,86,0.00,,,0.00,WUHU216HW,2013-01-16 10:27:00,
2013-01-16 05:33:00,20.9,17.3,29.77,West,270,0.2,0.4,86,0.00,,,0.00,WUHU216HW,2013-01-16 10:33:00,
2013-01-16 05:38:00,20.7,17.1,29.77,West,270,0.0,0.4,86,0.00,,,0.00,WUHU216HW,2013-01-16 10:38:00,
2013-01-16 05:43:00,20.7,17.1,29.77,West,270,0.0,0.2,86,0.00,,,0.00,WUHU216HW,2013-01-16 10:43:00,
2013-01-16 05:48:00,20.9,17.3,29.77,West,270,0.0,0.2,86,0.00,,,0.00,WUHU216HW,2013-01-16 10:48:00,
2013-01-16 05:53:00,20.9,17.3,29.77,West,270,0.0,0.2,86,0.00,,,0.00,WUHU216HW,2013-01-16 10:53:00,
2013-01-16 05:58:00,20.9,17.3,29.77,West,270,0.0,0.2,86,0.00,,,0.00,WUHU216HW,2013-01-16 10:58:00,
2013-01-16 06:03:00,20.9,17.3,29.77,West,270,0.0,0.2,86,0.00,,,0.00,WUHU216HW,2013-01-16 11:03:00,
2013-01-16 06:08:00,21.1,17.5,29.76,West,270,0.0,0.2,86,0.00,,,0.00,WUHU216HW,2013-01-16 11:08:00,
2013-01-16 06:13:00,21.2,17.6,29.76,West,270,0.0,0.4,86,0.00,,,0.00,WUHU216HW,2013-01-16 11:13:00,
2013-01-16 06:18:00,21.2,17.6,29.75,West,270,0.0,0.4,86,0.00,,,0.00,WUHU216HW,2013-01-16 11:18:00,
2013-01-16 06:23:00,21.2,17.6,29.75,West,270,0.0,0.4,86,0.00,,,0.00,WUHU216HW,2013-01-16 11:23:00,
2013-01-16 06:28:00,21.2,17.6,29.75,West,270,0.0,0.4,86,0.00,,,0.00,WUHU216HW,2013-01-16 11:28:00,
2013-01-16 06:33:00,21.2,17.6,29.75,West,270,0.0,0.2,86,0.00,,,0.00,WUHU216HW,2013-01-16 11:33:00,
2013-01-16 06:38:00,21.2,17.6,29.75,West,270,0.0,0.0,86,0.00,,,0.00,WUHU216HW,2013-01-16 11:38:00,
2013-01-16 06:43:00,21.2,17.6,29.74,West,270,0.4,0.4,86,0.00,,,0.00,WUHU216HW,2013-01-16 11:43:00,
2013-01-16 06:48:00,21.1,17.5,29.74,West,270,0.0,0.4,86,0.00,,,0.00,WUHU216HW,2013-01-16 11:48:00,
2013-01-16 06:53:00,21.1,17.5,29.73,West,270,0.4,0.4,86,0.00,,,0.00,WUHU216HW,2013-01-16 11:53:00,
2013-01-16 06:58:00,20.9,17.3,29.73,West,270,0.0,0.4,86,0.00,,,0.00,WUHU216HW,2013-01-16 11:58:00,
2013-01-16 07:03:00,21.1,17.5,29.73,West,270,0.0,0.4,86,0.00,,,0.00,WUHU216HW,2013-01-16 12:03:00,
2013-01-16 07:08:00,21.1,17.5,29.74,West,270,0.0,0.0,86,0.00,,,0.00,WUHU216HW,2013-01-16 12:08:00,
2013-01-16 07:13:00,21.1,17.5,29.74,West,270,0.0,0.2,86,0.00,,,0.00,WUHU216HW,2013-01-16 12:13:00,
2013-01-16 07:18:00,21.2,17.6,29.74,West,270,0.0,0.2,86,0.00,,,0.00,WUHU216HW,2013-01-16 12:18:00,
2013-01-16 07:23:00,21.2,17.6,29.74,West,270,0.0,0.4,86,0.00,,,0.00,WUHU216HW,2013-01-16 12:23:00,
2013-01-16 07:28:00,21.2,17.6,29.73,West,270,0.0,0.4,86,0.00,,,0.00,WUHU216HW,2013-01-16 12:28:00,
2013-01-16 07:33:00,21.2,17.6,29.73,West,270,0.0,0.4,86,0.00,,,0.00,WUHU216HW,2013-01-16 12:33:00,
2013-01-16 07:38:00,21.2,17.6,29.73,West,270,0.0,0.4,86,0.00,,,0.00,WUHU216HW,2013-01-16 12:38:00,
2013-01-16 07:43:00,21.2,17.6,29.73,West,270,0.0,0.4,86,0.00,,,0.00,WUHU216HW,2013-01-16 12:43:00,
2013-01-16 07:48:00,21.2,17.6,29.73,West,270,0.0,0.2,86,0.00,,,0.00,WUHU216HW,2013-01-16 12:48:00,
2013-01-16 07:53:00,21.2,17.6,29.73,West,270,0.0,0.0,86,0.00,,,0.00,WUHU216HW,2013-01-16 12:53:00,
2013-01-16 07:58:00,21.1,17.5,29.72,West,270,0.0,0.0,86,0.00,,,0.00,WUHU216HW,2013-01-16 12:58:00,
2013-01-16 08:03:00,20.9,17.3,29.72,West,270,0.4,1.1,86,0.00,,,0.00,WUHU216HW,2013-01-16 13:03:00,
2013-01-16 08:08:00,20.9,17.3,29.72,West,270,0.0,1.1,86,0.00,,,0.00,WUHU216HW,2013-01-16 13:08:00,
2013-01-16 08:13:00,20.7,17.1,29.72,West,270,0.4,0.4,86,0.00,,,0.00,WUHU216HW,2013-01-16 13:13:00,
2013-01-16 08:18:00,20.7,17.1,29.72,West,270,0.4,0.4,86,0.00,,,0.00,WUHU216HW,2013-01-16 13:18:00,
2013-01-16 08:23:00,20.5,16.9,29.71,West,270,0.4,0.4,86,0.00,,,0.00,WUHU216HW,2013-01-16 13:23:00,
2013-01-16 08:28:00,20.7,17.1,29.72,West,270,0.0,0.4,86,0.00,,,0.00,WUHU216HW,2013-01-16 13:28:00,
2013-01-16 08:33:00,20.7,17.1,29.72,West,270,0.4,0.4,86,0.00,,,0.00,WUHU216HW,2013-01-16 13:33:00,
2013-01-16 08:38:00,20.7,17.1,29.71,West,270,0.4,0.9,86,0.00,,,0.00,WUHU216HW,2013-01-16 13:38:00,
2013-01-16 08:43:00,20.7,17.1,29.72,West,270,0.4,0.9,86,0.00,,,0.00,WUHU216HW,2013-01-16 13:43:00,
2013-01-16 08:48:00,20.7,17.1,29.72,West,270,0.9,0.9,86,0.00,,,0.00,WUHU216HW,2013-01-16 13:48:00,
2013-01-16 08:53:00,20.7,17.1,29.71,West,270,0.2,0.9,86,0.00,,,0.00,WUHU216HW,2013-01-16 13:53:00,
2013-01-16 08:58:00,20.9,17.3,29.72,West,270,2.2,2.2,86,0.00,,,0.00,WUHU216HW,2013-01-16 13:58:00,
2013-01-16 09:03:00,21.2,17.6,29.71,West,270,0.4,2.2,86,0.00,,,0.00,WUHU216HW,2013-01-16 14:03:00,
2013-01-16 09:08:00,21.4,17.8,29.72,West,270,0.7,2.2,86,0.00,,,0.00,WUHU216HW,2013-01-16 14:08:00,
2013-01-16 09:13:00,22.0,18.4,29.72,West,270,0.7,1.8,86,0.00,,,0.00,WUHU216HW,2013-01-16 14:13:00,
2013-01-16 09:18:00,22.3,18.7,29.72,West,270,1.3,2.0,86,0.00,,,0.00,WUHU216HW,2013-01-16 14:18:00,
2013-01-16 09:23:00,22.7,18.8,29.71,West,270,0.2,2.0,85,0.00,,,0.00,WUHU216HW,2013-01-16 14:23:00,
2013-01-16 09:28:00,23.2,19.6,29.71,West,270,0.7,1.8,86,0.00,,,0.00,WUHU216HW,2013-01-16 14:28:00,
2013-01-16 09:33:00,23.6,19.7,29.71,West,270,1.3,1.8,85,0.00,,,0.00,WUHU216HW,2013-01-16 14:33:00,
2013-01-16 09:38:00,24.1,20.3,29.71,West,270,2.0,3.1,85,0.00,,,0.00,WUHU216HW,2013-01-16 14:38:00,
2013-01-16 09:43:00,24.5,20.6,29.70,West,270,3.4,3.4,85,0.00,,,0.00,WUHU216HW,2013-01-16 14:43:00,
2013-01-16 09:48:00,24.8,21.0,29.70,West,270,2.0,4.0,85,0.00,,,0.00,WUHU216HW,2013-01-16 14:48:00,
2013-01-16 09:53:00,25.0,21.2,29.70,West,270,0.7,4.0,85,0.00,,,0.00,WUHU216HW,2013-01-16 14:53:00,
2013-01-16 09:58:00,25.4,21.3,29.69,West,270,2.0,4.0,84,0.00,,,0.00,WUHU216HW,2013-01-16 14:58:00,
2013-01-16 10:03:00,25.6,21.4,29.70,West,270,2.7,4.0,84,0.00,,,0.00,WUHU216HW,2013-01-16 15:03:00,
2013-01-16 10:08:00,25.9,21.7,29.70,West,270,3.6,3.6,84,0.00,,,0.00,WUHU216HW,2013-01-16 15:08:00,
2013-01-16 10:13:00,26.3,22.1,29.70,West,270,2.5,4.7,84,0.00,,,0.00,WUHU216HW,2013-01-16 15:13:00,
2013-01-16 10:18:00,26.8,22.3,29.70,West,270,4.9,4.9,83,0.00,,,0.00,WUHU216HW,2013-01-16 15:18:00,
2013-01-16 10:23:00,27.0,22.8,29.70,West,270,4.0,9.2,84,0.00,,,0.00,WUHU216HW,2013-01-16 15:23:00,
2013-01-16 10:28:00,27.4,22.9,29.70,West,270,5.6,9.2,83,0.00,,,0.00,WUHU216HW,2013-01-16 15:28:00,
2013-01-16 10:33:00,27.7,23.2,29.69,West,270,4.0,7.4,83,0.00,,,0.00,WUHU216HW,2013-01-16 15:33:00,
2013-01-16 10:38:00,27.9,23.4,29.70,West,270,6.3,6.3,83,0.00,,,0.00,WUHU216HW,2013-01-16 15:38:00,
2013-01-16 10:43:00,28.1,23.2,29.70,West,270,4.7,8.1,82,0.00,,,0.00,WUHU216HW,2013-01-16 15:43:00,
2013-01-16 10:48:00,28.3,23.4,29.70,West,270,3.4,8.3,82,0.00,,,0.00,WUHU216HW,2013-01-16 15:48:00,
2013-01-16 10:53:00,28.6,23.2,29.69,West,270,5.4,8.5,80,0.00,,,0.00,WUHU216HW,2013-01-16 15:53:00,
2013-01-16 10:58:00,28.8,23.7,29.69,West,270,4.7,9.2,81,0.00,,,0.00,WUHU216HW,2013-01-16 15:58:00,
2013-01-16 11:03:00,29.0,23.9,29.69,West,270,6.7,9.2,81,0.00,,,0.00,WUHU216HW,2013-01-16 16:03:00,
2013-01-16 11:08:00,29.2,23.8,29.69,West,270,5.6,8.7,80,0.00,,,0.00,WUHU216HW,2013-01-16 16:08:00,
2013-01-16 11:13:00,29.5,23.8,29.69,West,270,5.4,8.7,79,0.00,,,0.00,WUHU216HW,2013-01-16 16:13:00,
2013-01-16 11:18:00,29.5,23.8,29.68,West,270,5.6,7.4,79,0.00,,,0.00,WUHU216HW,2013-01-16 16:18:00,
2013-01-16 11:23:00,29.7,23.7,29.68,West,270,3.4,6.9,78,0.00,,,0.00,WUHU216HW,2013-01-16 16:23:00,
2013-01-16 11:28:00,30.1,24.0,29.68,West,270,3.1,6.9,78,0.00,,,0.00,WUHU216HW,2013-01-16 16:28:00,
2013-01-16 11:33:00,30.2,23.9,29.67,West,270,2.5,6.9,77,0.00,,,0.00,WUHU216HW,2013-01-16 16:33:00,
2013-01-16 11:38:00,30.4,23.8,29.67,West,270,4.7,7.6,76,0.00,,,0.00,WUHU216HW,2013-01-16 16:38:00,
2013-01-16 11:42:00,30.6,24.0,29.67,West,270,0.9,7.6,76,0.00,,,0.00,WUHU216HW,2013-01-16 16:42:00,
2013-01-16 11:48:00,30.8,23.4,29.66,West,270,3.4,5.8,74,0.00,,,0.00,WUHU216HW,2013-01-16 16:48:00,
2013-01-16 11:53:00,31.0,23.3,29.65,West,270,4.3,7.2,73,0.00,,,0.00,WUHU216HW,2013-01-16 16:53:00,
2013-01-16 11:58:00,31.1,23.1,29.65,West,270,2.2,9.4,72,0.00,,,0.00,WUHU216HW,2013-01-16 16:58:00,
2013-01-16 12:03:00,31.3,23.1,29.65,West,270,6.5,9.4,71,0.00,,,0.00,WUHU216HW,2013-01-16 17:03:00,
2013-01-16 12:08:00,31.3,22.7,29.64,West,270,6.3,8.5,70,0.00,,,0.00,WUHU216HW,2013-01-16 17:08:00,
2013-01-16 12:13:00,31.5,22.9,29.64,West,270,4.0,9.2,70,0.00,,,0.00,WUHU216HW,2013-01-16 17:13:00,
2013-01-16 12:18:00,31.7,23.0,29.64,West,270,4.9,9.2,70,0.00,,,0.00,WUHU216HW,2013-01-16 17:18:00,
2013-01-16 12:23:00,32.0,22.7,29.63,West,270,2.5,7.6,68,0.00,,,0.00,WUHU216HW,2013-01-16 17:23:00,
2013-01-16 12:28:00,32.0,23.0,29.63,West,270,5.1,7.6,69,0.00,,,0.00,WUHU216HW,2013-01-16 17:28:00,
2013-01-16 12:33:00,32.4,22.7,29.62,West,270,4.0,6.3,67,0.00,,,0.00,WUHU216HW,2013-01-16 17:33:00,
2013-01-16 12:38:00,32.6,22.8,29.61,West,270,5.6,9.2,67,0.00,,,0.00,WUHU216HW,2013-01-16 17:38:00,
2013-01-16 12:43:00,32.6,22.1,29.61,West,270,9.6,9.6,65,0.00,,,0.00,WUHU216HW,2013-01-16 17:43:00,
2013-01-16 12:48:00,32.8,21.5,29.60,West,270,3.4,9.6,63,0.00,,,0.00,WUHU216HW,2013-01-16 17:48:00,
2013-01-16 12:53:00,32.8,21.9,29.60,WSW,248,2.5,9.6,64,0.00,,,0.00,WUHU216HW,2013-01-16 17:53:00,
2013-01-16 12:57:00,33.1,22.6,29.60,South,180,5.8,9.8,65,0.00,,,0.00,WUHU216HW,2013-01-16 17:57:00,
2013-01-16 13:02:00,33.3,22.4,29.60,SSW,203,5.6,9.8,64,0.00,,,0.00,WUHU216HW,2013-01-16 18:02:00,
2013-01-16 13:07:00,33.5,21.8,29.60,West,270,6.7,8.1,62,0.00,,,0.00,WUHU216HW,2013-01-16 18:07:00,
2013-01-16 13:12:00,33.5,21.4,29.60,SW,225,7.2,8.1,61,0.00,,,0.00,WUHU216HW,2013-01-16 18:12:00,
2013-01-16 13:17:00,33.8,21.4,29.59,WSW,248,7.6,9.2,60,0.00,,,0.00,WUHU216HW,2013-01-16 18:17:00,
2013-01-16 13:22:00,34.0,21.2,29.59,WSW,248,6.7,9.2,59,0.00,,,0.00,WUHU216HW,2013-01-16 18:22:00,
2013-01-16 13:27:00,34.0,20.7,29.60,West,270,6.7,12.5,58,0.00,,,0.00,WUHU216HW,2013-01-16 18:27:00,
2013-01-16 13:33:00,34.2,21.3,29.59,West,270,6.5,12.5,59,0.00,,,0.00,WUHU216HW,2013-01-16 18:33:00,
2013-01-16 13:38:00,34.4,20.7,29.59,SW,225,4.0,9.2,57,0.00,,,0.00,WUHU216HW,2013-01-16 18:38:00,
2013-01-16 13:43:00,34.7,21.9,29.59,WSW,248,6.0,9.2,59,0.00,,,0.00,WUHU216HW,2013-01-16 18:43:00,
2013-01-16 13:48:00,34.9,22.5,29.59,SW,225,7.2,7.8,60,0.00,,,0.00,WUHU216HW,2013-01-16 18:48:00,
2013-01-16 13:53:00,34.9,22.5,29.59,SW,225,3.6,7.2,60,0.00,,,0.00,WUHU216HW,2013-01-16 18:53:00,
2013-01-16 13:58:00,34.9,22.5,29.58,West,270,6.3,7.8,60,0.00,,,0.00,WUHU216HW,2013-01-16 18:58:00,
2013-01-16 14:03:00,35.1,22.7,29.58,ESE,113,5.8,8.9,60,0.00,,,0.00,WUHU216HW,2013-01-16 19:03:00,
2013-01-16 14:08:00,35.1,22.7,29.57,WSW,248,7.8,8.9,60,0.00,,,0.00,WUHU216HW,2013-01-16 19:08:00,
2013-01-16 14:13:00,35.3,22.9,29.57,SW,225,2.5,7.8,60,0.00,,,0.00,WUHU216HW,2013-01-16 19:13:00,
2013-01-16 14:18:00,35.5,21.8,29.57,WSW,248,7.6,8.9,57,0.00,,,0.00,WUHU216HW,2013-01-16 19:18:00,
2013-01-16 14:23:00,35.6,22.0,29.57,WNW,293,9.8,11.2,57,0.00,,,0.00,WUHU216HW,2013-01-16 19:23:00,
2013-01-16 14:28:00,35.6,22.8,29.57,SSW,203,1.3,11.2,59,0.00,,,0.00,WUHU216HW,2013-01-16 19:28:00,
2013-01-16 14:33:00,35.8,22.1,29.57,West,270,3.1,9.8,57,0.00,,,0.00,WUHU216HW,2013-01-16 19:33:00,
2013-01-16 14:38:00,36.0,22.2,29.57,WSW,248,8.1,8.1,57,0.00,,,0.00,WUHU216HW,2013-01-16 19:38:00,
2013-01-16 14:43:00,36.2,22.0,29.57,SSW,203,10.5,10.5,56,0.00,,,0.00,WUHU216HW,2013-01-16 19:43:00,
2013-01-16 14:48:00,36.0,21.8,29.57,West,270,6.9,10.5,56,0.00,,,0.00,WUHU216HW,2013-01-16 19:48:00,
2013-01-16 14:53:00,36.2,21.5,29.57,WSW,248,3.4,10.5,55,0.00,,,0.00,WUHU216HW,2013-01-16 19:53:00,
2013-01-16 14:58:00,36.4,21.7,29.57,SW,225,6.0,9.2,55,0.00,,,0.00,WUHU216HW,2013-01-16 19:58:00,
2013-01-16 15:03:00,36.4,21.7,29.58,SW,225,7.4,9.6,55,0.00,,,0.00,WUHU216HW,2013-01-16 20:03:00,
2013-01-16 15:08:00,36.4,20.9,29.57,West,270,5.6,11.6,53,0.00,,,0.00,WUHU216HW,2013-01-16 20:08:00,
2013-01-16 15:13:00,36.5,21.0,29.57,WSW,248,9.4,11.6,53,0.00,,,0.00,WUHU216HW,2013-01-16 20:13:00,
2013-01-16 15:18:00,36.4,20.9,29.57,SW,225,7.6,9.4,53,0.00,,,0.00,WUHU216HW,2013-01-16 20:18:00,
2013-01-16 15:23:00,36.4,19.5,29.57,SW,225,13.9,13.9,50,0.00,,,0.00,WUHU216HW,2013-01-16 20:23:00,
2013-01-16 15:28:00,36.4,19.5,29.58,West,270,8.5,13.9,50,0.00,,,0.00,WUHU216HW,2013-01-16 20:28:00,
2013-01-16 15:33:00,36.4,19.5,29.57,WSW,248,8.5,13.9,50,0.00,,,0.00,WUHU216HW,2013-01-16 20:33:00,
2013-01-16 15:38:00,36.4,20.0,29.57,West,270,13.4,13.4,51,0.00,,,0.00,WUHU216HW,2013-01-16 20:38:00,
2013-01-16 15:42:00,36.4,20.4,29.57,West,270,4.5,13.4,52,0.00,,,0.00,WUHU216HW,2013-01-16 20:42:00,
2013-01-16 15:47:00,36.4,20.4,29.57,SSW,203,2.0,13.4,52,0.00,,,0.00,WUHU216HW,2013-01-16 20:47:00,
2013-01-16 15:52:00,36.4,21.2,29.57,WNW,293,4.7,9.4,54,0.00,,,0.00,WUHU216HW,2013-01-16 20:52:00,
2013-01-16 15:57:00,36.4,20.4,29.57,West,270,8.3,10.1,52,0.00,,,0.00,WUHU216HW,2013-01-16 20:57:00,
2013-01-16 16:02:00,36.4,20.4,29.57,West,270,7.6,10.5,52,0.00,,,0.00,WUHU216HW,2013-01-16 21:02:00,
2013-01-16 16:07:00,36.4,20.0,29.57,WSW,248,5.6,10.5,51,0.00,,,0.00,WUHU216HW,2013-01-16 21:07:00,
2013-01-16 16:12:00,36.4,20.9,29.57,SW,225,3.8,8.7,53,0.00,,,0.00,WUHU216HW,2013-01-16 21:12:00,
2013-01-16 16:17:00,36.4,20.4,29.58,WNW,293,5.8,9.8,52,0.00,,,0.00,WUHU216HW,2013-01-16 21:17:00,
2013-01-16 16:22:00,36.4,20.9,29.58,West,270,7.2,9.8,53,0.00,,,0.00,WUHU216HW,2013-01-16 21:22:00,
2013-01-16 16:27:00,36.2,20.7,29.57,WSW,248,3.8,9.4,53,0.00,,,0.00,WUHU216HW,2013-01-16 21:27:00,
2013-01-16 16:32:00,36.0,19.6,29.58,West,270,5.4,13.6,51,0.00,,,0.00,WUHU216HW,2013-01-16 21:32:00,
2013-01-16 16:37:00,36.0,20.1,29.58,WSW,248,7.2,13.6,52,0.00,,,0.00,WUHU216HW,2013-01-16 21:37:00,
2013-01-16 16:42:00,35.8,19.9,29.59,SW,225,6.3,13.4,52,0.00,,,0.00,WUHU216HW,2013-01-16 21:42:00,
2013-01-16 16:47:00,35.6,20.2,29.58,SW,225,7.6,13.4,53,0.00,,,0.00,WUHU216HW,2013-01-16 21:47:00,
2013-01-16 16:52:00,35.6,19.8,29.58,SW,225,6.9,11.0,52,0.00,,,0.00,WUHU216HW,2013-01-16 21:52:00,
2013-01-16 16:57:00,35.3,19.5,29.59,WSW,248,13.9,13.9,52,0.00,,,0.00,WUHU216HW,2013-01-16 21:57:00,
2013-01-16 17:02:00,35.3,19.5,29.59,WSW,248,2.5,13.9,52,0.00,,,0.00,WUHU216HW,2013-01-16 22:02:00,
2013-01-16 17:07:00,35.1,19.6,29.59,SW,225,3.4,13.9,53,0.00,,,0.00,WUHU216HW,2013-01-16 22:07:00,
2013-01-16 17:12:00,35.1,20.1,29.59,SW,225,5.6,6.3,54,0.00,,,0.00,WUHU216HW,2013-01-16 22:12:00,
2013-01-16 17:17:00,34.9,19.4,29.59,SW,225,3.1,6.9,53,0.00,,,0.00,WUHU216HW,2013-01-16 22:17:00,
2013-01-16 17:22:00,34.9,19.9,29.59,SW,225,7.8,7.8,54,0.00,,,0.00,WUHU216HW,2013-01-16 22:22:00,
2013-01-16 17:27:00,34.9,19.9,29.60,SSW,203,4.0,9.4,54,0.00,,,0.00,WUHU216HW,2013-01-16 22:27:00,
2013-01-16 17:32:00,34.9,20.3,29.60,WSW,248,5.4,9.4,55,0.00,,,0.00,WUHU216HW,2013-01-16 22:32:00,
2013-01-16 17:37:00,34.7,20.2,29.60,WSW,248,5.1,5.4,55,0.00,,,0.00,WUHU216HW,2013-01-16 22:37:00,
2013-01-16 17:42:00,34.7,19.7,29.60,WSW,248,2.7,5.4,54,0.00,,,0.00,WUHU216HW,2013-01-16 22:42:00,
2013-01-16 17:47:00,34.6,20.0,29.60,West,270,5.8,9.2,55,0.00,,,0.00,WUHU216HW,2013-01-16 22:47:00,
2013-01-16 17:52:00,34.6,19.5,29.60,West,270,4.7,9.2,54,0.00,,,0.00,WUHU216HW,2013-01-16 22:52:00,
2013-01-16 17:57:00,34.4,19.8,29.60,WSW,248,6.9,8.5,55,0.00,,,0.00,WUHU216HW,2013-01-16 22:57:00,
2013-01-16 18:02:00,34.4,19.8,29.60,SW,225,6.3,8.1,55,0.00,,,0.00,WUHU216HW,2013-01-16 23:02:00,
2013-01-16 18:07:00,34.2,20.1,29.61,WSW,248,4.0,6.9,56,0.00,,,0.00,WUHU216HW,2013-01-16 23:07:00,
2013-01-16 18:12:00,34.2,20.1,29.60,WSW,248,6.3,9.6,56,0.00,,,0.00,WUHU216HW,2013-01-16 23:12:00,
2013-01-16 18:17:00,34.2,20.1,29.60,West,270,4.0,9.6,56,0.00,,,0.00,WUHU216HW,2013-01-16 23:17:00,
2013-01-16 18:23:00,34.2,20.1,29.60,West,270,6.3,9.2,56,0.00,,,0.00,WUHU216HW,2013-01-16 23:23:00,
2013-01-16 18:28:00,34.0,19.9,29.60,WSW,248,4.9,9.2,56,0.00,,,0.00,WUHU216HW,2013-01-16 23:28:00,
2013-01-16 18:33:00,34.0,19.9,29.61,West,270,6.7,7.2,56,0.00,,,0.00,WUHU216HW,2013-01-16 23:33:00,
2013-01-16 18:38:00,34.0,19.9,29.61,SSW,203,3.8,7.2,56,0.00,,,0.00,WUHU216HW,2013-01-16 23:38:00,
2013-01-16 18:43:00,33.8,19.7,29.61,SW,225,7.6,10.7,56,0.00,,,0.00,WUHU216HW,2013-01-16 23:43:00,
2013-01-16 18:48:00,33.7,19.5,29.61,SW,225,10.1,10.7,56,0.00,,,0.00,WUHU216HW,2013-01-16 23:48:00,
2013-01-16 18:53:00,33.7,20.0,29.62,SSW,203,4.7,10.1,57,0.00,,,0.00,WUHU216HW,2013-01-16 23:53:00,
2013-01-16 18:58:00,33.7,20.0,29.62,West,270,6.9,11.6,57,0.00,,,0.00,WUHU216HW,2013-01-16 23:58:00,
2013-01-16 19:03:00,33.7,20.0,29.63,SW,225,6.3,11.6,57,0.00,,,0.00,WUHU216HW,2013-01-17 00:03:00,
2013-01-16 19:08:00,33.5,20.3,29.63,West,270,3.6,10.3,58,0.00,,,0.00,WUHU216HW,2013-01-17 00:08:00,
2013-01-16 19:13:00,33.5,20.3,29.63,West,270,12.1,12.1,58,0.00,,,0.00,WUHU216HW,2013-01-17 00:13:00,
2013-01-16 19:18:00,33.5,20.3,29.64,WSW,248,6.0,12.1,58,0.00,,,0.00,WUHU216HW,2013-01-17 00:18:00,
2013-01-16 19:23:00,33.5,20.7,29.64,SW,225,8.7,12.1,59,0.00,,,0.00,WUHU216HW,2013-01-17 00:23:00,
2013-01-16 19:28:00,33.5,20.7,29.64,WSW,248,5.6,8.7,59,0.00,,,0.00,WUHU216HW,2013-01-17 00:28:00,
2013-01-16 19:33:00,33.5,20.7,29.64,WSW,248,4.3,8.7,59,0.00,,,0.00,WUHU216HW,2013-01-17 00:33:00,
2013-01-16 19:38:00,33.5,21.1,29.64,SSW,203,5.4,7.8,60,0.00,,,0.00,WUHU216HW,2013-01-17 00:38:00,
2013-01-16 19:43:00,33.5,21.1,29.64,SW,225,2.7,7.8,60,0.00,,,0.00,WUHU216HW,2013-01-17 00:43:00,
2013-01-16 19:48:00,33.5,21.1,29.64,West,270,3.8,7.6,60,0.00,,,0.00,WUHU216HW,2013-01-17 00:48:00,
2013-01-16 19:53:00,33.3,21.0,29.64,WSW,248,4.0,8.7,60,0.00,,,0.00,WUHU216HW,2013-01-17 00:53:00,
2013-01-16 19:58:00,33.3,21.3,29.64,SW,225,4.7,8.7,61,0.00,,,0.00,WUHU216HW,2013-01-17 00:58:00,
2013-01-16 20:03:00,33.3,21.3,29.64,SW,225,5.8,8.1,61,0.00,,,0.00,WUHU216HW,2013-01-17 01:03:00,
2013-01-16 20:08:00,33.3,21.3,29.64,SW,225,10.3,10.3,61,0.00,,,0.00,WUHU216HW,2013-01-17 01:08:00,
2013-01-16 20:13:00,33.3,21.3,29.64,SW,225,5.6,10.3,61,0.00,,,0.00,WUHU216HW,2013-01-17 01:13:00,
2013-01-16 20:18:00,33.3,21.7,29.64,West,270,5.6,10.5,62,0.00,,,0.00,WUHU216HW,2013-01-17 01:18:00,
2013-01-16 20:23:00,33.3,21.7,29.65,WSW,248,3.6,10.5,62,0.00,,,0.00,WUHU216HW,2013-01-17 01:23:00,
2013-01-16 20:28:00,33.1,21.5,29.65,West,270,10.5,10.5,62,0.00,,,0.00,WUHU216HW,2013-01-17 01:28:00,
2013-01-16 20:33:00,33.1,21.5,29.65,West,270,2.5,10.5,62,0.00,,,0.00,WUHU216HW,2013-01-17 01:33:00,
2013-01-16 20:38:00,33.1,21.9,29.65,West,270,5.8,10.5,63,0.00,,,0.00,WUHU216HW,2013-01-17 01:38:00,
2013-01-16 20:43:00,33.1,21.9,29.65,West,270,4.7,10.1,63,0.00,,,0.00,WUHU216HW,2013-01-17 01:43:00,
2013-01-16 20:48:00,33.1,21.9,29.65,West,270,6.3,10.1,63,0.00,,,0.00,WUHU216HW,2013-01-17 01:48:00,
2013-01-16 20:53:00,33.1,22.2,29.66,WSW,248,6.9,9.2,64,0.00,,,0.00,WUHU216HW,2013-01-17 01:53:00,
2013-01-16 20:58:00,33.1,22.2,29.66,West,270,6.7,8.7,64,0.00,,,0.00,WUHU216HW,2013-01-17 01:58:00,
2013-01-16 21:03:00,33.1,22.2,29.66,WSW,248,8.5,8.7,64,0.00,,,0.00,WUHU216HW,2013-01-17 02:03:00,
2013-01-16 21:08:00,33.1,22.6,29.66,West,270,10.5,10.5,65,0.00,,,0.00,WUHU216HW,2013-01-17 02:08:00,
2013-01-16 21:13:00,33.1,23.0,29.67,WNW,293,6.3,11.9,66,0.00,,,0.00,WUHU216HW,2013-01-17 02:13:00,
2013-01-16 21:18:00,33.1,23.0,29.66,WSW,248,11.0,11.9,66,0.00,,,0.00,WUHU216HW,2013-01-17 02:18:00,
2013-01-16 21:23:00,32.9,23.1,29.66,WSW,248,4.7,11.0,67,0.00,,,0.00,WUHU216HW,2013-01-17 02:23:00,
2013-01-16 21:28:00,32.9,23.1,29.67,West,270,3.6,11.0,67,0.00,,,0.00,WUHU216HW,2013-01-17 02:28:00,
2013-01-16 21:33:00,32.9,23.1,29.67,WSW,248,4.5,8.9,67,0.00,,,0.00,WUHU216HW,2013-01-17 02:33:00,
2013-01-16 21:38:00,32.9,23.1,29.67,West,270,5.6,8.9,67,0.00,,,0.00,WUHU216HW,2013-01-17 02:38:00,
2013-01-16 21:43:00,32.9,23.5,29.67,WNW,293,2.5,7.4,68,0.00,,,0.00,WUHU216HW,2013-01-17 02:43:00,
2013-01-16 21:48:00,32.9,23.9,29.67,West,270,8.1,8.1,69,0.00,,,0.00,WUHU216HW,2013-01-17 02:48:00,
2013-01-16 21:53:00,32.9,23.9,29.67,WSW,248,4.5,9.2,69,0.00,,,0.00,WUHU216HW,2013-01-17 02:53:00,
2013-01-16 21:58:00,32.9,23.9,29.67,West,270,3.4,9.2,69,0.00,,,0.00,WUHU216HW,2013-01-17 02:58:00,
2013-01-16 22:03:00,32.9,24.2,29.67,West,270,3.6,9.2,70,0.00,,,0.00,WUHU216HW,2013-01-17 03:03:00,
2013-01-16 22:08:00,32.9,23.9,29.68,WSW,248,2.9,9.2,69,0.00,,,0.00,WUHU216HW,2013-01-17 03:08:00,
2013-01-16 22:13:00,32.9,24.2,29.68,West,270,6.5,8.7,70,0.00,,,0.00,WUHU216HW,2013-01-17 03:13:00,
2013-01-16 22:18:00,32.9,24.2,29.68,West,270,6.7,8.7,70,0.00,,,0.00,WUHU216HW,2013-01-17 03:18:00,
2013-01-16 22:23:00,32.9,24.2,29.68,West,270,9.6,11.0,70,0.00,,,0.00,WUHU216HW,2013-01-17 03:23:00,
2013-01-16 22:28:00,32.9,24.6,29.68,West,270,9.2,11.0,71,0.00,,,0.00,WUHU216HW,2013-01-17 03:28:00,
2013-01-16 22:33:00,32.9,24.6,29.68,West,270,3.4,10.5,71,0.00,,,0.00,WUHU216HW,2013-01-17 03:33:00,
2013-01-16 22:38:00,32.9,24.8,29.68,West,270,6.5,10.5,72,0.00,,,0.00,WUHU216HW,2013-01-17 03:38:00,
2013-01-16 22:43:00,32.9,24.8,29.68,West,270,7.4,11.9,72,0.00,,,0.00,WUHU216HW,2013-01-17 03:43:00,
2013-01-16 22:48:00,32.9,25.2,29.68,WNW,293,11.4,11.9,73,0.00,,,0.00,WUHU216HW,2013-01-17 03:48:00,
2013-01-16 22:53:00,32.9,25.2,29.69,WSW,248,7.6,11.4,73,0.00,,,0.00,WUHU216HW,2013-01-17 03:53:00,
2013-01-16 22:58:00,32.9,25.2,29.68,WNW,293,6.0,11.4,73,0.00,,,0.00,WUHU216HW,2013-01-17 03:58:00,
2013-01-16 23:03:00,33.1,25.7,29.69,West,270,8.1,8.1,74,0.00,,,0.00,WUHU216HW,2013-01-17 04:03:00,
2013-01-16 23:08:00,33.1,25.7,29.69,WNW,293,3.6,9.8,74,0.00,,,0.00,WUHU216HW,2013-01-17 04:08:00,
2013-01-16 23:13:00,33.1,26.0,29.69,WSW,248,7.2,9.8,75,0.00,,,0.00,WUHU216HW,2013-01-17 04:13:00,
2013-01-16 23:18:00,33.1,26.0,29.69,WSW,248,9.2,9.2,75,0.00,,,0.00,WUHU216HW,2013-01-17 04:18:00,
2013-01-16 23:23:00,33.1,26.3,29.69,West,270,4.5,9.2,76,0.00,,,0.00,WUHU216HW,2013-01-17 04:23:00,
2013-01-16 23:28:00,33.1,26.3,29.70,West,270,4.0,9.2,76,0.00,,,0.00,WUHU216HW,2013-01-17 04:28:00,
2013-01-16 23:33:00,33.3,26.5,29.70,West,270,7.8,7.8,76,0.00,,,0.00,WUHU216HW,2013-01-17 04:33:00,
2013-01-16 23:38:00,33.1,26.3,29.70,WNW,293,6.3,7.8,76,0.00,,,0.00,WUHU216HW,2013-01-17 04:38:00,
2013-01-16 23:43:00,33.1,26.3,29.70,West,270,6.0,7.8,76,0.00,,,0.00,WUHU216HW,2013-01-17 04:43:00,
2013-01-16 23:48:00,33.1,26.3,29.70,WSW,248,9.4,9.4,76,0.00,,,0.00,WUHU216HW,2013-01-17 04:48:00,
2013-01-16 23:53:00,33.1,26.3,29.71,West,270,9.2,9.4,76,0.00,,,0.00,WUHU216HW,2013-01-17 04:53:00,
2013-01-16 23:58:00,33.3,26.5,29.71,West,270,4.9,9.4,76,0.00,,,0.00,WUHU216HW,2013-01-17 04:58:00,